Regional Weather Roundup
Issued by NWS Kansas City/Pleasant Hill, MO

Home | Current Version | Previous Version | Graphics & Text | Print | Product List | Glossary Off
Versions: 1 2 3 4 5 6 7 8 9 10 11 12 13 14 15 16 17 18 19 20 21 22 23 24 25 26 27 28 29 30 31 32 33 34 35 36 37 38 39 40 41 42 43 44 45 46 47 48 49 50

314
ASUS43 KEAX 011710
RWREAX

WEATHER ROUNDUP FOR EASTERN KANSAS AND NORTHWEST MISSOURI
NATIONAL WEATHER SERVICE KANSAS CITY/PLEASANT HILL MO
1200 PM CDT SUN MAY 01 2016

KSZ040-057-103>105-MOZ028-029-037-043-011800-
...KANSAS CITY METROPOLITAN AREA...

CITY           SKY/WX    TMP DP  RH WIND       PRES   REMARKS
K.C. INTL      PTSUNNY   58  48  69 NW10      29.99S
K.C. DOWNTOWN  CLOUDY    59  45  59 NW6       29.99R
LEES SUMMIT    CLOUDY    59  41  51 W10       29.99S
OLATHE - IXD   CLOUDY    56  45  66 NW9       30.01R
OLATHE - OJC   CLOUDY    56  42  59 W9        30.00R
LAWRENCE       CLOUDY    57  47  69 NW12      30.01R

$$

MOZ001>008-011>017-020>025-030>033-038>040-044>046-053-054-011800-
...NORTHERN AND CENTRAL MISSOURI...

CITY           SKY/WX    TMP DP  RH WIND       PRES   REMARKS
ST. JOSEPH     CLOUDY    53  49  86 N10       30.01R
MOSBY          CLOUDY    57  46  67 W7        29.98S
WARRENSBURG    PTSUNNY   59  41  51 W7        29.98F
WHITEMAN AFB   PTSUNNY   61  43  53 W10       29.97S
CLINTON        PTSUNNY   61  46  59 SW12      30.00S
SEDALIA        MOSUNNY   63  44  50 W13       29.98S
WARSAW         NOT AVBL
CHILLICOTHE      N/A     57  52  83 N3        29.98S
KIRKSVILLE     CLOUDY    53  49  86 N7        29.97S

$$

MOZ041-047>049-056>058-063>065-088>090-097-011800-
...EASTERN AND SOUTHERN MISSOURI...

CITY           SKY/WX    TMP DP  RH WIND       PRES   REMARKS
ST. LOUIS INTL CLOUDY    68  58  70 VRB5      29.95S
SPIRIT OF STL  CLOUDY    64  59  82 NW8       29.95R
COLUMBIA       PTSUNNY   64  49  57 W13       29.96S
JEFFERSON CITY MOSUNNY   65  49  56 W12       29.96S
ROLLA          MOSUNNY   65  51  60 W10       29.95S
OSAGE BEACH    MOSUNNY   64  43  45 W7G17     29.98F
SPRINGFIELD    SUNNY     64  43  46 W13G20    30.00S
BRANSON        SUNNY     64  45  48 W9        30.01F
JOPLIN         PTSUNNY   60  46  59 W14       30.04R
WEST PLAINS    SUNNY     68  51  54 W7        29.99S

$$

IAZ060-094-KSZ022-034>040-054-083-096-NEZ052-066-093-011800-
...KANSAS...SOUTHEAST NEBRASKA AND IOWA...

CITY           SKY/WX    TMP DP  RH WIND       PRES   REMARKS
TOPEKA         PTSUNNY   59  47  64 W8        30.02S
MANHATTAN      CLOUDY    54  46  74 N7        30.05R
EMPORIA        CLOUDY    54  45  71 W18G25    30.06R
CHANUTE        MOSUNNY   59  44  57 W13       30.05R
WICHITA        CLOUDY    54  44  69 N13       30.09S
OMAHA          LGT RAIN  47  44  90 N15       30.09R
LINCOLN        CLOUDY    47  43  86 N20       30.11R
FALLS CITY     CLOUDY    50  47  89 N13       30.03R
LAMONI         LGT RAIN  47  46  97 N8        30.00S
DES MOINES     DRIZZLE   46  43  89 NE8       30.04R FOG

$$





USA.gov is the U.S. government's official web portal to all federal, state and local government web resources and services.